St. Johns, AZ

4:23 PM MST on March 27, 2017 (GMT -0700)
Saint Johns Industrial

Weather History for KSJN - February, 2013

Change the Weather History Date:

Sunday, February 17, 2013

  Actual Average (KLSB) Record (KLSB)
Temperature  
Mean Temperature 34 °F -  
Max Temperature 51 °F 63 °F 78 °F (2016)
Min Temperature 17 °F 27 °F 23 °F (2013)
Degree Days  
Heating Degree Days 31    
Moisture  
Dew Point 7 °F    
Average Humidity 33    
Maximum Humidity 71    
Minimum Humidity 10    
Precipitation  
Precipitation 0.00 in - - ()
Sea Level Pressure  
Sea Level Pressure 29.90 in    
Wind  
Wind Speed 7 mph (WSW)    
Max Wind Speed 28 mph    
Max Gust Speed 40 mph    
Visibility 10 miles    
Events      
Averages and records for this station are not official NWS values.
T = Trace of Precipitation, MM = Missing Value Source: NWS Daily Summary

Daily Weather History Graph

Daily Weather History Graph

Search for Another Location

Airport or City:

Trip Planner

Search our weather history database for the weather conditions in past years. The results will help you decide how hot, cold, wet, or windy it might be!

Date:

Astronomy

Feb. 17, 2013 Rise Set
Actual Time 7:00 AM MST 6:03 PM MST
Civil Twilight 6:34 AM MST 6:28 PM MST
Nautical Twilight 6:05 AM MST 6:58 PM MST
Astronomical Twilight 5:36 AM MST 7:27 PM MST
Moon 11:15 AM MST (2/17) 12:42 AM MST (2/17)
Length of Visible Light 11h 53m
Length of Day
11h 02m
Waxing Crescent, 49% of the Moon is Illuminated
Feb 17
Waxing Crescent
Feb 17
First Quarter
Feb 25
Full
Mar 4
Last Quarter
Mar 11
New

Hourly Weather History & Observations

Time (MST) Temp. Windchill Dew Point Humidity Pressure Visibility Wind Dir Wind Speed Gust Speed Precip Events Conditions
12:54 AM 19.0 °F 13.9 °F 6.1 °F 57% 30.12 in 8.0 mi WNW 3.5 mph - N/A   Clear
1:54 AM 18.0 °F - 6.1 °F 60% 30.09 in 10.0 mi Calm Calm - N/A   Clear
2:54 AM 21.9 °F - 7.0 °F 53% 30.04 in 10.0 mi Calm Calm - N/A   Clear
3:54 AM 19.0 °F - 7.0 °F 59% 30.01 in 10.0 mi Calm Calm - N/A   Clear
4:54 AM 19.0 °F - 7.0 °F 59% 29.98 in 9.0 mi Calm Calm - N/A   Clear
5:54 AM 12.9 °F 6.9 °F 5.0 °F 71% 30.01 in 10.0 mi West 3.5 mph - N/A   Clear
6:54 AM 17.1 °F - 7.0 °F 65% 30.06 in 10.0 mi Calm Calm - N/A   Clear
7:54 AM 19.9 °F - 8.1 °F 60% 30.05 in 10.0 mi Calm Calm - N/A   Clear
8:54 AM 34.0 °F - 8.1 °F 34% 29.99 in 10.0 mi Calm Calm - N/A   Clear
9:54 AM 41.0 °F - 9.0 °F 27% 29.94 in 10.0 mi Calm Calm - N/A   Clear
10:54 AM 51.1 °F - 8.1 °F 18% 29.88 in 10.0 mi Calm Calm - N/A   Clear
11:54 AM 59.0 °F - 1.9 °F 10% 29.82 in 10.0 mi WSW 21.9 mph 29.9 mph N/A   Clear
12:54 PM 61.0 °F - 3.9 °F 10% 29.81 in 10.0 mi SSW 13.8 mph 28.8 mph N/A   Clear
1:54 PM 61.0 °F - 3.9 °F 10% 29.76 in 10.0 mi SW 24.2 mph 35.7 mph N/A   Clear
2:54 PM 60.1 °F - 5.0 °F 11% 29.74 in 10.0 mi WSW 27.6 mph 40.3 mph N/A   Clear
3:54 PM 57.9 °F - 3.0 °F 11% 29.75 in 10.0 mi WSW 26.5 mph 40.3 mph N/A   Clear
4:54 PM 55.0 °F - 5.0 °F 13% 29.77 in 10.0 mi WSW 23.0 mph 32.2 mph N/A   Clear
5:54 PM 51.1 °F - 8.1 °F 18% 29.82 in 10.0 mi SW 18.4 mph - N/A   Clear
6:54 PM 46.9 °F - 6.1 °F 19% 29.84 in 10.0 mi WSW 20.7 mph 27.6 mph N/A   Clear
7:54 PM 44.6 °F 37.2 °F 8.6 °F 23% 29.87 in 10.0 mi SW 17.3 mph 26.5 mph N/A   Clear
8:54 PM 42.1 °F 34.2 °F 8.1 °F 25% 29.84 in 10.0 mi SW 16.1 mph - N/A   Clear
9:54 PM 41.0 °F 32.8 °F 10.0 °F 28% 29.84 in 10.0 mi SW 16.1 mph - N/A   Clear
10:54 PM 37.9 °F 28.5 °F 10.0 °F 32% 29.82 in 10.0 mi SW 17.3 mph - N/A   Clear
11:54 PM 37.0 °F 28.5 °F 10.0 °F 33% 29.81 in 10.0 mi SW 13.8 mph - N/A   Clear